EW9528 Weather Reports


Display with metric or nautical units.
time (UTC)temp
F
wind
direction
speed
MPH
gust
MPH
rain 1hr
in
rain 24hr
in
rain mn
in
humidity
%
barometer
mb
20260507165324 57 175 3.0 5.0 0.00 0.00 0.00 40 1022.1
20260507164326 57 180 3.0 5.0 0.00 0.00 0.00 39 1022.4
20260507163326 57 164 4.0 6.0 0.00 0.00 0.00 41 1022.5
20260507155425 55 157 2.0 3.0 0.00 0.00 0.00 47 1022.7
20260507154428 55 163 3.0 7.0 0.00 0.00 0.00 47 1022.8
20260507153428 54 132 2.0 5.0 0.00 0.00 0.00 48 1022.9
20260507152440 54 158 3.0 6.0 0.00 0.00 0.00 49 1022.9
20260507150527 53 186 2.0 5.0 0.00 0.00 0.00 52 1023.0
20260507145625 51 180 0.0 2.0 0.00 0.00 0.00 54 1023.0
20260507144626 51 180 2.0 3.0 0.00 0.00 0.00 56 1022.9
20260507143628 50 112 0.0 2.0 0.00 0.00 0.00 55 1023.0
20260507142726 50 112 0.0 1.0 0.00 0.00 0.00 55 1023.0
20260507141726 50 45 0.0 0.0 0.00 0.00 0.00 55 1022.9
20260507140726 49 45 0.0 0.0 0.00 0.00 0.00 59 1022.9
20260507135826 47 45 3.0 3.0 0.00 0.00 0.00 65 1022.8
20260507134826 46 45 0.0 0.0 0.00 0.00 0.00 68 1022.6
20260507134725 46 45 0.0 0.0 0.00 0.00 0.00 68 1022.6
20260507133726 45 47 3.0 6.0 0.00 0.00 0.00 68 1022.6
20260507132726 44 247 1.0 2.0 0.00 0.00 0.00 70 1022.4
20260507131726 43 247 1.0 1.0 0.00 0.00 0.00 71 1022.4
20260507125742 42 247 0.0 0.0 0.00 0.00 0.00 72 1022.2
20260507125628 42 247 0.0 1.0 0.00 0.00 0.00 72 1022.1
20260507124625 42 247 0.0 0.0 0.00 0.00 0.00 72 1022.1
20260507123626 41 247 2.0 3.0 0.00 0.00 0.00 73 1022.0
20260507122627 41 247 2.0 2.0 0.00 0.00 0.00 72 1021.9
20260507121725 42 247 0.0 0.0 0.00 0.00 0.00 70 1021.8
20260507120824 42 247 0.0 0.0 0.00 0.00 0.00 70 1021.9
20260507115827 43 247 0.0 0.0 0.00 0.00 0.00 70 1021.8
20260507114825 43 247 0.0 0.0 0.00 0.00 0.00 71 1021.9
20260507112825 41 247 0.0 0.0 0.00 0.00 0.00 72 1021.8
20260507111825 41 247 0.0 0.0 0.00 0.00 0.00 71 1021.8
20260507111742 41 247 0.0 0.0 0.00 0.00 0.00 71 1021.7
20260507104824 42 247 0.0 0.0 0.00 0.00 0.00 69 1021.8
20260507103826 42 247 0.0 0.0 0.00 0.00 0.00 69 1021.9
20260507102925 42 247 0.0 0.0 0.00 0.00 0.00 68 1022.0
20260507101926 43 247 0.0 0.0 0.00 0.00 0.00 67 1022.0
20260507101024 43 247 0.0 0.0 0.00 0.00 0.00 67 1022.2
20260507100033 44 247 0.0 0.0 0.00 0.00 0.00 65 1022.3
20260507095927 44 247 0.0 0.0 0.00 0.00 0.00 64 1022.2
20260507094927 44 247 0.0 0.0 0.00 0.00 0.00 63 1022.5
20260507093926 45 247 0.0 0.0 0.00 0.00 0.00 62 1022.5
20260507092927 45 247 0.0 0.0 0.00 0.01 0.00 60 1022.7
20260507091945 44 247 0.0 0.0 0.00 0.03 0.00 58 1022.7
20260507091026 44 247 0.0 0.0 0.00 0.04 0.00 58 1022.7
20260507090025 43 247 0.0 0.0 0.00 0.06 0.00 55 1022.6
20260507085041 43 247 0.0 0.0 0.00 0.08 0.00 56 1022.8
20260507084026 42 247 0.0 2.0 0.00 0.08 0.00 56 1022.8
20260507082026 42 247 0.0 0.0 0.00 0.08 0.00 54 1023.0
20260507081026 42 247 0.0 0.0 0.00 0.08 0.00 52 1023.0
20260507080042 43 247 0.0 0.0 0.00 0.08 0.00 51 1023.2
20260507075125 43 247 0.0 0.0 0.00 0.08 0.00 50 1023.1
20260507074126 44 247 0.0 0.0 0.00 0.08 0.00 49 1023.1
20260507074026 44 247 0.0 0.0 0.00 0.08 0.00 49 1023.2
20260507072026 45 247 0.0 0.0 0.00 0.08 0.00 47 1023.3
20260507071124 45 247 0.0 0.0 0.00 0.08 0.00 47 1023.2
20260507070125 45 270 0.0 0.0 0.00 0.08 0.00 47 1023.4
20260507065127 45 270 0.0 0.0 0.00 0.08 0.00 48 1023.4
20260507064142 45 270 0.0 0.0 0.00 0.08 0.00 49 1023.3
20260507063225 45 270 1.0 2.0 0.00 0.08 0.00 48 1023.4
20260507063126 45 270 0.0 2.0 0.00 0.08 0.00 49 1023.4
20260507062125 45 270 2.0 3.0 0.00 0.08 0.00 48 1023.4
20260507061225 45 270 0.0 1.0 0.00 0.08 0.00 46 1023.2
20260507060242 46 270 0.0 0.0 0.00 0.08 0.00 45 1023.2
20260507055211 47 270 0.0 0.0 0.00 0.08 0.08 42 1023.1
20260507054213 48 270 0.0 0.0 0.00 0.08 0.08 41 1023.2
20260507053213 48 270 0.0 0.0 0.00 0.08 0.08 39 1023.2
20260507052212 49 262 1.0 2.0 0.00 0.08 0.08 38 1023.0
20260507051312 49 317 2.0 6.0 0.00 0.08 0.08 38 1023.2
20260507051214 49 315 3.0 6.0 0.00 0.08 0.08 37 1023.2
20260507050211 50 315 0.0 0.0 0.00 0.08 0.08 37 1023.2
20260507050126 50 315 0.0 0.0 0.00 0.08 0.08 37 1023.2
20260507044213 50 265 3.0 4.0 0.00 0.08 0.08 37 1023.2
20260507043213 50 270 2.0 2.0 0.00 0.08 0.08 38 1023.0
20260507040510 52 112 0.0 0.0 0.00 0.08 0.08 33 1023.0
20260507035513 53 253 2.0 4.0 0.00 0.08 0.08 33 1023.0
20260507034511 52 286 2.0 3.0 0.00 0.08 0.08 33 1023.0
20260507033528 52 247 0.0 2.0 0.00 0.08 0.08 34 1022.9
20260507032611 54 247 2.0 4.0 0.00 0.08 0.08 32 1022.6
20260507031611 55 292 1.0 3.0 0.00 0.08 0.08 27 1022.5
20260507030628 55 315 0.0 0.0 0.00 0.08 0.08 28 1022.5
20260507025712 55 337 0.0 0.0 0.00 0.08 0.08 27 1022.6
20260507023910 56 360 1.0 2.0 0.00 0.08 0.08 28 1022.5
20260507022010 57 360 2.0 3.0 0.00 0.08 0.08 26 1022.4
20260507021012 59 360 2.0 2.0 0.00 0.08 0.08 25 1022.5
20260507020011 60 360 2.0 3.0 0.00 0.08 0.08 24 1022.4
20260507015010 61 22 1.0 2.0 0.00 0.08 0.08 23 1022.4
20260507014013 61 32 2.0 4.0 0.00 0.08 0.08 23 1022.4
20260507013011 62 20 5.0 7.0 0.00 0.08 0.08 22 1022.5
20260507012012 62 26 6.0 10.0 0.00 0.08 0.08 22 1022.4
20260507011014 62 3 4.0 8.0 0.00 0.08 0.08 21 1022.5
20260507005013 62 22 7.0 10.0 0.00 0.08 0.08 21 1022.3
20260507004012 63 36 7.0 11.0 0.00 0.08 0.08 21 1022.3
20260507003111 62 357 3.0 6.0 0.00 0.08 0.08 22 1022.4
20260507002112 63 41 5.0 9.0 0.00 0.08 0.08 21 1022.3
20260507000126 62 21 9.0 12.0 0.00 0.08 0.08 21 1022.2
20260506235111 62 47 9.0 14.0 0.00 0.08 0.08 22 1022.2
20260506234112 63 18 8.0 12.0 0.00 0.08 0.08 21 1022.1
20260506233113 63 357 6.0 10.0 0.00 0.08 0.08 22 1022.1
20260506232111 63 354 7.0 12.0 0.00 0.08 0.08 23 1022.0
20260506231111 63 4 9.0 14.0 0.00 0.08 0.08 22 1022.0
20260506230114 62 9 6.0 11.0 0.00 0.08 0.08 23 1022.1
20260506225111 62 4 7.0 11.0 0.00 0.08 0.08 23 1022.0
20260506225027 62 6 9.0 15.0 0.00 0.08 0.08 23 1022.1
20260506224115 62 23 10.0 14.0 0.00 0.08 0.08 23 1022.1
20260506221311 62 26 9.0 16.0 0.00 0.09 0.08 23 1022.2
20260506220312 62 345 4.0 8.0 0.00 0.09 0.08 23 1022.5
20260506215312 62 4 7.0 12.0 0.00 0.09 0.08 23 1022.5
20260506214313 62 7 10.0 18.0 0.00 0.09 0.08 23 1022.5
20260506213312 61 12 11.0 21.0 0.00 0.09 0.08 24 1022.3
20260506211327 61 26 10.0 20.0 0.00 0.09 0.08 23 1022.5
20260506205314 60 353 6.0 9.0 0.00 0.09 0.08 23 1022.5
20260506204311 60 352 6.0 11.0 0.00 0.09 0.08 23 1022.5
20260506204228 60 360 9.0 13.0 0.00 0.09 0.08 22 1022.6
20260506203311 60 11 11.0 16.0 0.00 0.09 0.08 22 1022.2
20260506202311 60 10 11.0 20.0 0.00 0.09 0.08 22 1022.4
20260506201312 60 353 10.0 15.0 0.00 0.09 0.08 22 1022.4
20260506200313 59 11 10.0 18.0 0.00 0.09 0.08 20 1022.2
20260506194412 59 17 10.0 17.0 0.00 0.09 0.08 22 1022.6
20260506192610 58 349 7.0 11.0 0.00 0.09 0.08 22 1022.6
20260506190612 57 15 10.0 18.0 0.00 0.09 0.08 21 1022.7
20260506185612 57 15 10.0 16.0 0.00 0.09 0.08 21 1022.7
20260506184628 56 12 6.0 12.0 0.00 0.09 0.08 22 1022.7
20260506183711 56 6 10.0 18.0 0.00 0.09 0.08 23 1022.6
20260506182711 56 15 9.0 14.0 0.00 0.09 0.08 23 1022.6
20260506181729 55 9 11.0 18.0 0.00 0.09 0.08 22 1022.6
20260506180828 55 17 11.0 19.0 0.00 0.09 0.08 23 1022.6
20260506175911 55 8 8.0 15.0 0.00 0.09 0.08 24 1022.5
20260506175011 55 5 9.0 14.0 0.00 0.09 0.08 22 1022.3
20260506174013 54 13 14.0 24.0 0.00 0.09 0.08 21 1022.1
20260506173927 54 16 8.0 15.0 0.00 0.09 0.08 21 1022.2
20260506173011 55 19 10.0 16.0 0.00 0.09 0.08 22 1022.2
20260506172013 55 19 9.0 18.0 0.00 0.09 0.08 22 1022.0
20260506171011 54 20 14.0 22.0 0.00 0.09 0.08 24 1021.7
20260506170014 54 28 10.0 14.0 0.00 0.09 0.08 26 1021.6